Year,Month,Day,Hour,Minute,Value (Times are PST for windspeed in km/hr)
2017,05,21,00,00,0.00
2017,05,21,00,01,0.00
2017,05,21,00,02,0.00
2017,05,21,00,03,0.00
2017,05,21,00,04,0.00
2017,05,21,00,05,0.00
2017,05,21,00,06,0.00
2017,05,21,00,07,1.20
2017,05,21,00,08,0.00
2017,05,21,00,09,0.00
2017,05,21,00,10,0.00
2017,05,21,00,11,0.00
2017,05,21,00,12,0.00
2017,05,21,00,13,0.00
2017,05,21,00,14,0.00
2017,05,21,00,15,0.00
2017,05,21,00,16,0.20
2017,05,21,00,17,4.20
2017,05,21,00,18,2.90
2017,05,21,00,19,0.00
2017,05,21,00,20,0.00
2017,05,21,00,21,0.00
2017,05,21,00,22,0.00
2017,05,21,00,23,0.00
2017,05,21,00,24,0.00
2017,05,21,00,25,0.00
2017,05,21,00,26,1.50
2017,05,21,00,27,0.00
2017,05,21,00,28,0.00
2017,05,21,00,29,4.80
2017,05,21,00,30,6.50
2017,05,21,00,31,0.90
2017,05,21,00,32,0.00
2017,05,21,00,33,0.00
2017,05,21,00,34,0.00
2017,05,21,00,35,0.10
2017,05,21,00,36,0.00
2017,05,21,00,37,0.00
2017,05,21,00,38,0.00
2017,05,21,00,39,0.00
2017,05,21,00,40,0.00
2017,05,21,00,41,0.00
2017,05,21,00,42,0.00
2017,05,21,00,43,1.00
2017,05,21,00,44,1.10
2017,05,21,00,45,0.00
2017,05,21,00,46,0.00
2017,05,21,00,47,0.00
2017,05,21,00,48,0.00
2017,05,21,00,49,0.00
2017,05,21,00,50,0.00
2017,05,21,00,51,0.00
2017,05,21,00,52,0.00
2017,05,21,00,53,0.00
2017,05,21,00,54,0.00
2017,05,21,00,55,0.00
2017,05,21,00,56,0.00
2017,05,21,00,57,0.00
2017,05,21,00,58,0.00
2017,05,21,00,59,0.00
2017,05,21,01,00,0.00
2017,05,21,01,01,0.00
2017,05,21,01,02,0.00
2017,05,21,01,03,0.00
2017,05,21,01,04,0.00
2017,05,21,01,05,0.00
2017,05,21,01,06,0.00
2017,05,21,01,07,0.00
2017,05,21,01,08,0.00
2017,05,21,01,09,0.00
2017,05,21,01,10,0.00
2017,05,21,01,11,0.00
2017,05,21,01,12,0.70
2017,05,21,01,13,3.30
2017,05,21,01,14,0.60
2017,05,21,01,15,0.00
2017,05,21,01,16,0.00
2017,05,21,01,17,0.00
2017,05,21,01,18,0.00
2017,05,21,01,19,2.10
2017,05,21,01,20,1.00
2017,05,21,01,21,0.00
2017,05,21,01,22,0.00
2017,05,21,01,23,0.00
2017,05,21,01,24,0.00
2017,05,21,01,25,0.00
2017,05,21,01,26,0.00
2017,05,21,01,27,0.00
2017,05,21,01,28,0.00
2017,05,21,01,29,0.00
2017,05,21,01,30,0.00
2017,05,21,01,31,0.00
2017,05,21,01,32,0.00
2017,05,21,01,33,0.00
2017,05,21,01,34,0.00
2017,05,21,01,35,0.00
2017,05,21,01,36,0.00
2017,05,21,01,37,0.00
2017,05,21,01,38,0.00
2017,05,21,01,39,0.00
2017,05,21,01,40,0.00
2017,05,21,01,41,0.10
2017,05,21,01,42,0.00
2017,05,21,01,43,0.00
2017,05,21,01,44,0.00
2017,05,21,01,45,0.00
2017,05,21,01,46,1.30
2017,05,21,01,47,0.00
2017,05,21,01,48,0.00
2017,05,21,01,49,0.00
2017,05,21,01,50,1.80
2017,05,21,01,51,0.00
2017,05,21,01,52,0.00
2017,05,21,01,53,0.00
2017,05,21,01,54,0.00
2017,05,21,01,55,0.00
2017,05,21,01,56,0.00
2017,05,21,01,57,0.00
2017,05,21,01,58,0.00
2017,05,21,01,59,2.30
2017,05,21,02,00,0.00
2017,05,21,02,01,1.80
2017,05,21,02,02,3.90
2017,05,21,02,03,0.30
2017,05,21,02,04,0.00
2017,05,21,02,05,0.00
2017,05,21,02,06,0.00
2017,05,21,02,07,1.40
2017,05,21,02,08,0.00
2017,05,21,02,09,0.00
2017,05,21,02,10,0.00
2017,05,21,02,11,0.60
2017,05,21,02,12,1.30
2017,05,21,02,13,0.00
2017,05,21,02,14,0.00
2017,05,21,02,15,0.00
2017,05,21,02,16,0.00
2017,05,21,02,17,0.00
2017,05,21,02,18,0.00
2017,05,21,02,19,0.00
2017,05,21,02,20,0.00
2017,05,21,02,21,0.00
2017,05,21,02,22,0.00
2017,05,21,02,23,0.00
2017,05,21,02,24,0.90
2017,05,21,02,25,2.00
2017,05,21,02,26,0.00
2017,05,21,02,27,1.90
2017,05,21,02,28,1.40
2017,05,21,02,29,0.00
2017,05,21,02,30,0.00
2017,05,21,02,31,0.00
2017,05,21,02,32,0.00
2017,05,21,02,33,0.00
2017,05,21,02,34,0.00
2017,05,21,02,35,4.80
2017,05,21,02,36,0.30
2017,05,21,02,37,2.30
2017,05,21,02,38,1.00
2017,05,21,02,39,0.00
2017,05,21,02,40,0.00
2017,05,21,02,41,7.50
2017,05,21,02,42,2.20
2017,05,21,02,43,0.00
2017,05,21,02,44,0.00
2017,05,21,02,45,0.00
2017,05,21,02,46,0.00
2017,05,21,02,47,0.00
2017,05,21,02,48,0.00
2017,05,21,02,49,0.00
2017,05,21,02,50,0.00
2017,05,21,02,51,0.00
2017,05,21,02,52,0.00
2017,05,21,02,53,0.00
2017,05,21,02,54,0.00
2017,05,21,02,55,0.00
2017,05,21,02,56,0.00
2017,05,21,02,57,0.00
2017,05,21,02,58,0.00
2017,05,21,02,59,0.00
2017,05,21,03,00,0.00
2017,05,21,03,01,0.00
2017,05,21,03,02,0.00
2017,05,21,03,03,0.00
2017,05,21,03,04,0.00
2017,05,21,03,05,0.00
2017,05,21,03,06,0.00
2017,05,21,03,07,0.00
2017,05,21,03,08,0.00
2017,05,21,03,09,0.00
2017,05,21,03,10,0.00
2017,05,21,03,11,0.00
2017,05,21,03,12,0.00
2017,05,21,03,13,0.00
2017,05,21,03,14,0.00
2017,05,21,03,15,0.00
2017,05,21,03,16,0.00
2017,05,21,03,17,0.00
2017,05,21,03,18,0.00
2017,05,21,03,19,0.00
2017,05,21,03,20,0.00
2017,05,21,03,21,0.00
2017,05,21,03,22,0.00
2017,05,21,03,23,0.00
2017,05,21,03,24,0.00
2017,05,21,03,25,0.00
2017,05,21,03,26,0.00
2017,05,21,03,27,0.00
2017,05,21,03,28,0.00
2017,05,21,03,29,0.00
2017,05,21,03,30,0.00
2017,05,21,03,31,0.00
2017,05,21,03,32,0.00
2017,05,21,03,33,0.00
2017,05,21,03,34,0.00
2017,05,21,03,35,0.00
2017,05,21,03,36,0.00
2017,05,21,03,37,1.90
2017,05,21,03,38,7.60
2017,05,21,03,39,7.10
2017,05,21,03,40,7.20
2017,05,21,03,41,7.50
2017,05,21,03,42,6.20
2017,05,21,03,43,4.90
2017,05,21,03,44,3.20
2017,05,21,03,45,3.10
2017,05,21,03,46,0.40
2017,05,21,03,47,0.00
2017,05,21,03,48,0.00
2017,05,21,03,49,1.40
2017,05,21,03,50,4.70
2017,05,21,03,51,2.50
2017,05,21,03,52,0.00
2017,05,21,03,53,0.00
2017,05,21,03,54,0.00
2017,05,21,03,55,0.00
2017,05,21,03,56,0.00
2017,05,21,03,57,0.00
2017,05,21,03,58,0.00
2017,05,21,03,59,0.00
2017,05,21,04,00,0.00
2017,05,21,04,01,0.00
2017,05,21,04,02,0.00
2017,05,21,04,03,0.00
2017,05,21,04,04,0.00
2017,05,21,04,05,0.00
2017,05,21,04,06,0.00
2017,05,21,04,07,0.00
2017,05,21,04,08,0.00
2017,05,21,04,09,0.00
2017,05,21,04,10,0.00
2017,05,21,04,11,0.00
2017,05,21,04,12,0.00
2017,05,21,04,13,0.00
2017,05,21,04,14,0.80
2017,05,21,04,15,3.00
2017,05,21,04,16,4.00
2017,05,21,04,17,1.20
2017,05,21,04,18,0.00
2017,05,21,04,19,0.00
2017,05,21,04,20,0.00
2017,05,21,04,21,0.00
2017,05,21,04,22,2.90
2017,05,21,04,23,3.60
2017,05,21,04,24,1.40
2017,05,21,04,25,6.00
2017,05,21,04,26,0.60
2017,05,21,04,27,3.50
2017,05,21,04,28,0.60
2017,05,21,04,29,0.00
2017,05,21,04,30,0.00
2017,05,21,04,31,0.00
2017,05,21,04,32,0.00
2017,05,21,04,33,0.00
2017,05,21,04,34,0.00
2017,05,21,04,35,0.00
2017,05,21,04,36,0.00
2017,05,21,04,37,0.00
2017,05,21,04,38,0.00
2017,05,21,04,39,0.00
2017,05,21,04,40,0.00
2017,05,21,04,41,0.00
2017,05,21,04,42,0.40
2017,05,21,04,43,0.00
2017,05,21,04,44,0.00
2017,05,21,04,45,0.00
2017,05,21,04,46,0.00
2017,05,21,04,47,0.00
2017,05,21,04,48,0.00
2017,05,21,04,49,0.00
2017,05,21,04,50,0.00
2017,05,21,04,51,0.00
2017,05,21,04,52,0.00
2017,05,21,04,53,0.00
2017,05,21,04,54,0.00
2017,05,21,04,55,0.00
2017,05,21,04,56,0.00
2017,05,21,04,57,0.00
2017,05,21,04,58,0.00
2017,05,21,04,59,0.00
2017,05,21,05,00,0.00
2017,05,21,05,01,0.00
2017,05,21,05,02,0.00
2017,05,21,05,03,0.00
2017,05,21,05,04,0.00
2017,05,21,05,05,0.00
2017,05,21,05,06,0.00
2017,05,21,05,07,0.00
2017,05,21,05,08,0.00
2017,05,21,05,09,0.00
2017,05,21,05,10,0.00
2017,05,21,05,11,0.00
2017,05,21,05,12,0.00
2017,05,21,05,13,0.00
2017,05,21,05,14,0.00
2017,05,21,05,15,0.00
2017,05,21,05,16,0.00
2017,05,21,05,17,0.00
2017,05,21,05,18,0.00
2017,05,21,05,19,0.00
2017,05,21,05,20,0.00
2017,05,21,05,21,0.00
2017,05,21,05,22,0.00
2017,05,21,05,23,0.00
2017,05,21,05,24,0.00
2017,05,21,05,25,2.60
2017,05,21,05,26,5.00
2017,05,21,05,27,4.90
2017,05,21,05,28,3.50
2017,05,21,05,29,3.80
2017,05,21,05,30,3.40
2017,05,21,05,31,3.90
2017,05,21,05,32,4.00
2017,05,21,05,33,3.00
2017,05,21,05,34,3.20
2017,05,21,05,35,1.40
2017,05,21,05,36,0.00
2017,05,21,05,37,0.00
2017,05,21,05,38,0.00
2017,05,21,05,39,0.00
2017,05,21,05,40,0.00
2017,05,21,05,41,0.00
2017,05,21,05,42,0.00
2017,05,21,05,43,0.00
2017,05,21,05,44,0.00
2017,05,21,05,45,0.00
2017,05,21,05,46,0.00
2017,05,21,05,47,0.00
2017,05,21,05,48,0.00
2017,05,21,05,49,0.00
2017,05,21,05,50,0.00
2017,05,21,05,51,0.00
2017,05,21,05,52,0.00
2017,05,21,05,53,0.00
2017,05,21,05,54,0.00
2017,05,21,05,55,0.00
2017,05,21,05,56,0.00
2017,05,21,05,57,0.00
2017,05,21,05,58,0.00
2017,05,21,05,59,0.00
2017,05,21,06,00,0.00
2017,05,21,06,01,0.00
2017,05,21,06,02,0.00
2017,05,21,06,03,0.00
2017,05,21,06,04,0.00
2017,05,21,06,05,0.00
2017,05,21,06,06,0.00
2017,05,21,06,07,0.00
2017,05,21,06,08,0.00
2017,05,21,06,09,0.00
2017,05,21,06,10,0.00
2017,05,21,06,11,0.00
2017,05,21,06,12,0.00
2017,05,21,06,13,0.00
2017,05,21,06,14,0.00
2017,05,21,06,15,0.00
2017,05,21,06,16,0.00
2017,05,21,06,17,0.00
2017,05,21,06,18,0.00
2017,05,21,06,19,0.00
2017,05,21,06,20,0.00
2017,05,21,06,21,0.00
2017,05,21,06,22,0.00
2017,05,21,06,23,0.00
2017,05,21,06,24,0.00
2017,05,21,06,25,0.00
2017,05,21,06,26,0.00
2017,05,21,06,27,0.00
2017,05,21,06,28,0.00
2017,05,21,06,29,1.90
2017,05,21,06,30,0.80
2017,05,21,06,31,0.00
2017,05,21,06,32,0.00
2017,05,21,06,33,0.00
2017,05,21,06,34,0.00
2017,05,21,06,35,0.00
2017,05,21,06,36,0.00
2017,05,21,06,37,0.00
2017,05,21,06,38,0.00
2017,05,21,06,39,0.00
2017,05,21,06,40,0.00
2017,05,21,06,41,0.00
2017,05,21,06,42,0.00
2017,05,21,06,43,0.00
2017,05,21,06,44,0.00
2017,05,21,06,45,0.00
2017,05,21,06,46,0.00
2017,05,21,06,47,0.00
2017,05,21,06,48,0.00
2017,05,21,06,49,0.00
2017,05,21,06,50,0.00
2017,05,21,06,51,0.00
2017,05,21,06,52,0.00
2017,05,21,06,53,0.00
2017,05,21,06,54,0.00
2017,05,21,06,55,0.00
2017,05,21,06,56,0.00
2017,05,21,06,57,0.00
2017,05,21,06,58,0.00
2017,05,21,06,59,0.00
2017,05,21,07,00,0.00
2017,05,21,07,01,0.00
2017,05,21,07,02,0.00
2017,05,21,07,03,0.00
2017,05,21,07,04,0.00
2017,05,21,07,05,0.00
2017,05,21,07,06,0.00
2017,05,21,07,07,0.00
2017,05,21,07,08,3.40
2017,05,21,07,09,3.60
2017,05,21,07,10,0.00
2017,05,21,07,11,0.00
2017,05,21,07,12,0.00
2017,05,21,07,13,0.00
2017,05,21,07,14,0.00
2017,05,21,07,15,0.20
2017,05,21,07,16,1.60
2017,05,21,07,17,7.10
2017,05,21,07,18,7.40
2017,05,21,07,19,6.00
2017,05,21,07,20,4.10
2017,05,21,07,21,4.20
2017,05,21,07,22,0.80
2017,05,21,07,23,7.50
2017,05,21,07,24,2.00
2017,05,21,07,25,0.00
2017,05,21,07,26,2.50
2017,05,21,07,27,2.90
2017,05,21,07,28,1.10
2017,05,21,07,29,0.40
2017,05,21,07,30,0.00
2017,05,21,07,31,1.10
2017,05,21,07,32,4.20
2017,05,21,07,33,0.10
2017,05,21,07,34,5.20
2017,05,21,07,35,5.20
2017,05,21,07,36,3.90
2017,05,21,07,37,0.60
2017,05,21,07,38,2.30
2017,05,21,07,39,0.00
2017,05,21,07,40,0.00
2017,05,21,07,41,0.00
2017,05,21,07,42,0.00
2017,05,21,07,43,0.00
2017,05,21,07,44,1.80
2017,05,21,07,45,0.00
2017,05,21,07,46,0.00
2017,05,21,07,47,0.00
2017,05,21,07,48,0.00
2017,05,21,07,49,0.30
2017,05,21,07,50,2.10
2017,05,21,07,51,0.00
2017,05,21,07,52,0.00
2017,05,21,07,53,0.00
2017,05,21,07,54,3.50
2017,05,21,07,55,0.10
2017,05,21,07,56,3.80
2017,05,21,07,57,4.70
2017,05,21,07,58,3.70
2017,05,21,07,59,1.50
2017,05,21,08,00,0.00
2017,05,21,08,01,0.20
2017,05,21,08,02,0.00
2017,05,21,08,03,0.00
2017,05,21,08,04,0.00
2017,05,21,08,05,1.50
2017,05,21,08,06,0.00
2017,05,21,08,07,0.00
2017,05,21,08,08,0.00
2017,05,21,08,09,0.00
2017,05,21,08,10,3.30
2017,05,21,08,11,0.50
2017,05,21,08,12,0.00
2017,05,21,08,13,8.00
2017,05,21,08,14,4.90
2017,05,21,08,15,0.00
2017,05,21,08,16,0.10
2017,05,21,08,17,3.20
2017,05,21,08,18,0.80
2017,05,21,08,19,5.20
2017,05,21,08,20,5.60
2017,05,21,08,21,7.70
2017,05,21,08,22,8.40
2017,05,21,08,23,7.10
2017,05,21,08,24,6.60
2017,05,21,08,25,6.60
2017,05,21,08,26,2.50
2017,05,21,08,27,9.40
2017,05,21,08,28,5.30
2017,05,21,08,29,3.80
2017,05,21,08,30,4.30
2017,05,21,08,31,3.50
2017,05,21,08,32,0.70
2017,05,21,08,33,1.20
2017,05,21,08,34,0.70
2017,05,21,08,35,0.00
2017,05,21,08,36,0.00
2017,05,21,08,37,2.20
2017,05,21,08,38,4.00
2017,05,21,08,39,2.00
2017,05,21,08,40,7.50
2017,05,21,08,41,3.30
2017,05,21,08,42,2.40
2017,05,21,08,43,3.20
2017,05,21,08,44,1.70
2017,05,21,08,45,4.30
2017,05,21,08,46,2.40
2017,05,21,08,47,0.00
2017,05,21,08,48,0.20
2017,05,21,08,49,0.00
2017,05,21,08,50,0.00
2017,05,21,08,51,0.20
2017,05,21,08,52,0.00
2017,05,21,08,53,0.00
2017,05,21,08,54,0.00
2017,05,21,08,55,1.50
2017,05,21,08,56,0.00
2017,05,21,08,57,1.40
2017,05,21,08,58,4.00
2017,05,21,08,59,0.20
2017,05,21,09,00,3.50
2017,05,21,09,01,0.80
2017,05,21,09,02,6.40
2017,05,21,09,03,3.80
2017,05,21,09,04,0.00
2017,05,21,09,05,0.60
2017,05,21,09,06,1.90
2017,05,21,09,07,6.80
2017,05,21,09,08,7.50
2017,05,21,09,09,9.40
2017,05,21,09,10,6.40
2017,05,21,09,11,0.00
2017,05,21,09,12,2.30
2017,05,21,09,13,2.60
2017,05,21,09,14,0.80
2017,05,21,09,15,0.80
2017,05,21,09,16,3.50
2017,05,21,09,17,2.30
2017,05,21,09,18,0.50
2017,05,21,09,19,4.10
2017,05,21,09,20,4.20
2017,05,21,09,21,3.20
2017,05,21,09,22,2.80
2017,05,21,09,23,2.60
2017,05,21,09,24,7.70
2017,05,21,09,25,0.00
2017,05,21,09,26,0.80
2017,05,21,09,27,1.80
2017,05,21,09,28,0.00
2017,05,21,09,29,0.00
2017,05,21,09,30,0.00
2017,05,21,09,31,0.00
2017,05,21,09,32,2.00
2017,05,21,09,33,8.60
2017,05,21,09,34,9.30
2017,05,21,09,35,6.40
2017,05,21,09,36,8.40
2017,05,21,09,37,7.10
2017,05,21,09,38,7.00
2017,05,21,09,39,10.00
2017,05,21,09,40,3.10
2017,05,21,09,41,7.70
2017,05,21,09,42,2.80
2017,05,21,09,43,3.30
2017,05,21,09,44,3.60
2017,05,21,09,45,8.00
2017,05,21,09,46,7.60
2017,05,21,09,47,8.00
2017,05,21,09,48,6.40
2017,05,21,09,49,3.20
2017,05,21,09,50,0.20
2017,05,21,09,51,5.70
2017,05,21,09,52,6.40
2017,05,21,09,53,0.00
2017,05,21,09,54,1.00
2017,05,21,09,55,4.10
2017,05,21,09,56,4.40
2017,05,21,09,57,6.10
2017,05,21,09,58,7.70
2017,05,21,09,59,3.20
2017,05,21,10,00,9.50
2017,05,21,10,01,3.20
2017,05,21,10,02,8.20
2017,05,21,10,03,7.60
2017,05,21,10,04,7.00
2017,05,21,10,05,11.00
2017,05,21,10,06,8.40
2017,05,21,10,07,10.00
2017,05,21,10,08,11.10
2017,05,21,10,09,5.80
2017,05,21,10,10,1.20
2017,05,21,10,11,9.30
2017,05,21,10,12,8.40
2017,05,21,10,13,7.50
2017,05,21,10,14,4.70
2017,05,21,10,15,7.40
2017,05,21,10,16,10.10
2017,05,21,10,17,6.00
2017,05,21,10,18,2.50
2017,05,21,10,19,2.30
2017,05,21,10,20,0.80
2017,05,21,10,21,6.70
2017,05,21,10,22,4.40
2017,05,21,10,23,3.40
2017,05,21,10,24,4.60
2017,05,21,10,25,0.00
2017,05,21,10,26,0.00
2017,05,21,10,27,4.60
2017,05,21,10,28,3.50
2017,05,21,10,29,7.90
2017,05,21,10,30,2.50
2017,05,21,10,31,9.70
2017,05,21,10,32,5.50
2017,05,21,10,33,5.40
2017,05,21,10,34,10.00
2017,05,21,10,35,7.40
2017,05,21,10,36,6.10
2017,05,21,10,37,4.70
2017,05,21,10,38,5.30
2017,05,21,10,39,1.30
2017,05,21,10,40,5.60
2017,05,21,10,41,5.80
2017,05,21,10,42,9.20
2017,05,21,10,43,9.70
2017,05,21,10,44,8.30
2017,05,21,10,45,4.40
2017,05,21,10,46,8.50
2017,05,21,10,47,2.50
2017,05,21,10,48,11.40
2017,05,21,10,49,3.90
2017,05,21,10,50,0.80
2017,05,21,10,51,1.60
2017,05,21,10,52,0.00
2017,05,21,10,53,5.20
2017,05,21,10,54,0.30
2017,05,21,10,55,0.00
2017,05,21,10,56,0.00
2017,05,21,10,57,1.60
2017,05,21,10,58,0.00
2017,05,21,10,59,8.10
2017,05,21,11,00,2.80
2017,05,21,11,01,5.10
2017,05,21,11,02,9.00
2017,05,21,11,03,7.70
2017,05,21,11,04,8.40
2017,05,21,11,05,8.10
2017,05,21,11,06,6.60
2017,05,21,11,07,7.00
2017,05,21,11,08,8.10
2017,05,21,11,09,9.00
2017,05,21,11,10,8.80
2017,05,21,11,11,8.10
2017,05,21,11,12,6.70
2017,05,21,11,13,5.80
2017,05,21,11,14,8.10
2017,05,21,11,15,7.80
2017,05,21,11,16,7.10
2017,05,21,11,17,9.40
2017,05,21,11,18,7.60
2017,05,21,11,19,6.40
2017,05,21,11,20,8.60
2017,05,21,11,21,5.50
2017,05,21,11,22,8.50
2017,05,21,11,23,6.40
2017,05,21,11,24,4.10
2017,05,21,11,25,6.90
2017,05,21,11,26,6.00
2017,05,21,11,27,7.00
2017,05,21,11,28,8.50
2017,05,21,11,29,7.10
2017,05,21,11,30,7.80
2017,05,21,11,31,8.80
2017,05,21,11,32,9.60
2017,05,21,11,33,9.10
2017,05,21,11,34,9.90
2017,05,21,11,35,7.30
2017,05,21,11,36,6.40
2017,05,21,11,37,7.20
2017,05,21,11,38,8.00
2017,05,21,11,39,8.00
2017,05,21,11,40,6.80
2017,05,21,11,41,8.70
2017,05,21,11,42,6.70
2017,05,21,11,43,10.00
2017,05,21,11,44,7.50
2017,05,21,11,45,6.80
2017,05,21,11,46,6.10
2017,05,21,11,47,5.20
2017,05,21,11,48,6.00
2017,05,21,11,49,5.60
2017,05,21,11,50,9.30
2017,05,21,11,51,9.70
2017,05,21,11,52,9.60
2017,05,21,11,53,8.10
2017,05,21,11,54,3.10
2017,05,21,11,55,11.70
2017,05,21,11,56,7.40
2017,05,21,11,57,10.30
2017,05,21,11,58,7.50
2017,05,21,11,59,9.70
2017,05,21,12,00,8.00
2017,05,21,12,01,7.30
2017,05,21,12,02,5.10
2017,05,21,12,03,6.30
2017,05,21,12,04,4.40
2017,05,21,12,05,6.90
2017,05,21,12,06,10.70
2017,05,21,12,07,10.80
2017,05,21,12,08,7.60
2017,05,21,12,09,6.80
2017,05,21,12,10,6.30
2017,05,21,12,11,7.70
2017,05,21,12,12,7.30
2017,05,21,12,13,5.50
2017,05,21,12,14,1.60
2017,05,21,12,15,3.80
2017,05,21,12,16,4.80
2017,05,21,12,17,5.30
2017,05,21,12,18,8.50
2017,05,21,12,19,5.50
2017,05,21,12,20,0.00
2017,05,21,12,21,3.60
2017,05,21,12,22,4.00
2017,05,21,12,23,1.50
2017,05,21,12,24,1.90
2017,05,21,12,25,8.10
2017,05,21,12,26,8.50
2017,05,21,12,27,6.70
2017,05,21,12,28,7.10
2017,05,21,12,29,9.10
2017,05,21,12,30,9.00
2017,05,21,12,31,9.40
2017,05,21,12,32,5.80
2017,05,21,12,33,4.90
2017,05,21,12,34,4.70
2017,05,21,12,35,5.30
2017,05,21,12,36,5.70
2017,05,21,12,37,3.70
2017,05,21,12,38,2.70
2017,05,21,12,39,6.60
2017,05,21,12,40,6.50
2017,05,21,12,41,3.70
2017,05,21,12,42,6.80
2017,05,21,12,43,5.50
2017,05,21,12,44,6.40
2017,05,21,12,45,8.10
2017,05,21,12,46,7.00
2017,05,21,12,47,6.40
2017,05,21,12,48,3.50
2017,05,21,12,49,5.30
2017,05,21,12,50,9.10
2017,05,21,12,51,9.30
2017,05,21,12,52,6.60
2017,05,21,12,53,3.10
2017,05,21,12,54,7.10
2017,05,21,12,55,6.00
2017,05,21,12,56,4.30
2017,05,21,12,57,6.00
2017,05,21,12,58,5.20
2017,05,21,12,59,1.00
2017,05,21,13,00,9.90
2017,05,21,13,01,8.60
2017,05,21,13,02,3.70
2017,05,21,13,03,10.40
2017,05,21,13,04,0.80
2017,05,21,13,05,10.40
2017,05,21,13,06,9.50
2017,05,21,13,07,12.60
2017,05,21,13,08,14.10
2017,05,21,13,09,13.00
2017,05,21,13,10,13.80
2017,05,21,13,11,7.10
2017,05,21,13,12,8.00
2017,05,21,13,13,8.90
2017,05,21,13,14,8.80
2017,05,21,13,15,9.40
2017,05,21,13,16,3.50
2017,05,21,13,17,2.20
2017,05,21,13,18,3.00
2017,05,21,13,19,2.70
2017,05,21,13,20,4.80
2017,05,21,13,21,5.00
2017,05,21,13,22,6.90
2017,05,21,13,23,6.10
2017,05,21,13,24,2.70
2017,05,21,13,25,6.00
2017,05,21,13,26,2.70
2017,05,21,13,27,8.40
2017,05,21,13,28,6.40
2017,05,21,13,29,7.30
2017,05,21,13,30,9.10
2017,05,21,13,31,5.60
2017,05,21,13,32,11.00
2017,05,21,13,33,7.60
2017,05,21,13,34,6.40
2017,05,21,13,35,8.30
2017,05,21,13,36,9.30
2017,05,21,13,37,8.00
2017,05,21,13,38,3.70
2017,05,21,13,39,4.90
2017,05,21,13,40,4.90
2017,05,21,13,41,7.10
2017,05,21,13,42,7.70
2017,05,21,13,43,5.40
2017,05,21,13,44,2.50
2017,05,21,13,45,6.20
2017,05,21,13,46,2.70
2017,05,21,13,47,7.70
2017,05,21,13,48,4.70
2017,05,21,13,49,2.30
2017,05,21,13,50,2.20
2017,05,21,13,51,3.40
2017,05,21,13,52,6.20
2017,05,21,13,53,2.10
2017,05,21,13,54,3.10
2017,05,21,13,55,3.10
2017,05,21,13,56,4.80
2017,05,21,13,57,3.30
2017,05,21,13,58,7.40
2017,05,21,13,59,7.10
2017,05,21,14,00,6.40
2017,05,21,14,01,3.90
2017,05,21,14,02,9.00
2017,05,21,14,03,7.70
2017,05,21,14,04,2.00
2017,05,21,14,05,6.90
2017,05,21,14,06,8.80
2017,05,21,14,07,8.40
2017,05,21,14,08,6.80
2017,05,21,14,09,5.20
2017,05,21,14,10,7.50
2017,05,21,14,11,2.00
2017,05,21,14,12,6.80
2017,05,21,14,13,5.00
2017,05,21,14,14,5.10
2017,05,21,14,15,5.50
2017,05,21,14,16,2.30
2017,05,21,14,17,2.40
2017,05,21,14,18,7.20
2017,05,21,14,19,9.40
2017,05,21,14,20,7.00
2017,05,21,14,21,4.00
2017,05,21,14,22,2.90
2017,05,21,14,23,11.30
2017,05,21,14,24,9.10
2017,05,21,14,25,8.00
2017,05,21,14,26,9.30
2017,05,21,14,27,7.00
2017,05,21,14,28,10.80
2017,05,21,14,29,9.00
2017,05,21,14,30,7.40
2017,05,21,14,31,7.00
2017,05,21,14,32,8.80
2017,05,21,14,33,5.00
2017,05,21,14,34,9.70
2017,05,21,14,35,7.20
2017,05,21,14,36,1.80
2017,05,21,14,37,1.40
2017,05,21,14,38,0.00
2017,05,21,14,39,0.00
2017,05,21,14,40,4.70
2017,05,21,14,41,1.30
2017,05,21,14,42,1.00
2017,05,21,14,43,0.00
2017,05,21,14,44,0.00
2017,05,21,14,45,0.90
2017,05,21,14,46,1.90
2017,05,21,14,47,8.60
2017,05,21,14,48,5.90
2017,05,21,14,49,12.30
2017,05,21,14,50,7.70
2017,05,21,14,51,4.00
2017,05,21,14,52,6.00
2017,05,21,14,53,7.10
2017,05,21,14,54,6.70
2017,05,21,14,55,8.00
2017,05,21,14,56,9.80
2017,05,21,14,57,10.50
2017,05,21,14,58,6.90
2017,05,21,14,59,6.10
2017,05,21,15,00,9.30
2017,05,21,15,01,5.50
2017,05,21,15,02,3.20
2017,05,21,15,03,7.30
2017,05,21,15,04,3.30
2017,05,21,15,05,1.40
2017,05,21,15,06,3.80
2017,05,21,15,07,5.90
2017,05,21,15,08,1.80
2017,05,21,15,09,0.70
2017,05,21,15,10,0.00
2017,05,21,15,11,4.20
2017,05,21,15,12,7.70
2017,05,21,15,13,10.20
2017,05,21,15,14,6.70
2017,05,21,15,15,5.50
2017,05,21,15,16,15.00
2017,05,21,15,17,6.20
2017,05,21,15,18,6.40
2017,05,21,15,19,2.40
2017,05,21,15,20,3.00
2017,05,21,15,21,12.00
2017,05,21,15,22,12.00
2017,05,21,15,23,8.30
2017,05,21,15,24,1.50
2017,05,21,15,25,5.20
2017,05,21,15,26,3.40
2017,05,21,15,27,6.60
2017,05,21,15,28,5.80
2017,05,21,15,29,2.70
2017,05,21,15,30,1.40
2017,05,21,15,31,7.80
2017,05,21,15,32,8.70
2017,05,21,15,33,10.40
2017,05,21,15,34,7.70
2017,05,21,15,35,8.40
2017,05,21,15,36,8.00
2017,05,21,15,37,6.00
2017,05,21,15,38,6.80
2017,05,21,15,39,1.10
2017,05,21,15,40,11.00
2017,05,21,15,41,5.60
2017,05,21,15,42,10.10
2017,05,21,15,43,2.90
2017,05,21,15,44,2.10
2017,05,21,15,45,6.00
2017,05,21,15,46,4.00
2017,05,21,15,47,8.40
2017,05,21,15,48,9.10
2017,05,21,15,49,3.30
2017,05,21,15,50,1.40
2017,05,21,15,51,1.40
2017,05,21,15,52,0.80
2017,05,21,15,53,3.50
2017,05,21,15,54,3.10
2017,05,21,15,55,0.20
2017,05,21,15,56,0.00
2017,05,21,15,57,0.00
2017,05,21,15,58,0.00
2017,05,21,15,59,0.00
2017,05,21,16,00,0.00
2017,05,21,16,01,1.40
2017,05,21,16,02,2.70
2017,05,21,16,03,0.00
2017,05,21,16,04,2.00
2017,05,21,16,05,1.40
2017,05,21,16,06,4.50
2017,05,21,16,07,3.20
2017,05,21,16,08,4.90
2017,05,21,16,09,6.80
2017,05,21,16,10,12.50
2017,05,21,16,11,7.30
2017,05,21,16,12,3.40
2017,05,21,16,13,13.60
2017,05,21,16,14,6.00
2017,05,21,16,15,6.60
2017,05,21,16,16,4.40
2017,05,21,16,17,11.60
2017,05,21,16,18,8.40
2017,05,21,16,19,8.00
2017,05,21,16,20,11.90
2017,05,21,16,21,11.00
2017,05,21,16,22,11.20
2017,05,21,16,23,11.80
2017,05,21,16,24,7.40
2017,05,21,16,25,5.60
2017,05,21,16,26,9.50
2017,05,21,16,27,13.30
2017,05,21,16,28,3.80
2017,05,21,16,29,6.40
2017,05,21,16,30,10.40
2017,05,21,16,31,5.70
2017,05,21,16,32,4.20
2017,05,21,16,33,1.30
2017,05,21,16,34,13.60
2017,05,21,16,35,6.00
2017,05,21,16,36,15.60
2017,05,21,16,37,12.00
2017,05,21,16,38,9.50
2017,05,21,16,39,1.40
2017,05,21,16,40,8.40
2017,05,21,16,41,3.80
2017,05,21,16,42,4.20
2017,05,21,16,43,0.10
2017,05,21,16,44,3.50
2017,05,21,16,45,7.80
2017,05,21,16,46,11.90
2017,05,21,16,47,8.70
2017,05,21,16,48,11.70
2017,05,21,16,49,12.00
2017,05,21,16,50,5.90
2017,05,21,16,51,8.40
2017,05,21,16,52,8.70
2017,05,21,16,53,0.80
2017,05,21,16,54,1.70
2017,05,21,16,55,0.00
2017,05,21,16,56,2.00
2017,05,21,16,57,0.60
2017,05,21,16,58,4.70
2017,05,21,16,59,13.20
2017,05,21,17,00,9.50
2017,05,21,17,01,7.60
2017,05,21,17,02,12.00
2017,05,21,17,03,4.50
2017,05,21,17,04,8.50
2017,05,21,17,05,9.50
2017,05,21,17,06,10.10
2017,05,21,17,07,10.80
2017,05,21,17,08,10.20
2017,05,21,17,09,3.30
2017,05,21,17,10,10.60
2017,05,21,17,11,8.30
2017,05,21,17,12,11.50
2017,05,21,17,13,10.70
2017,05,21,17,14,5.20
2017,05,21,17,15,2.20
2017,05,21,17,16,8.90
2017,05,21,17,17,3.30
2017,05,21,17,18,4.00
2017,05,21,17,19,5.00
2017,05,21,17,20,2.10
2017,05,21,17,21,0.40
2017,05,21,17,22,3.30
2017,05,21,17,23,0.00
2017,05,21,17,24,0.90
2017,05,21,17,25,4.40
2017,05,21,17,26,4.50
2017,05,21,17,27,6.50
2017,05,21,17,28,7.60
2017,05,21,17,29,5.20
2017,05,21,17,30,0.80
2017,05,21,17,31,4.60
2017,05,21,17,32,4.80
2017,05,21,17,33,3.00
2017,05,21,17,34,2.60
2017,05,21,17,35,3.50
2017,05,21,17,36,3.60
2017,05,21,17,37,3.10
2017,05,21,17,38,6.30
2017,05,21,17,39,3.40
2017,05,21,17,40,0.60
2017,05,21,17,41,1.00
2017,05,21,17,42,0.30
2017,05,21,17,43,2.10
2017,05,21,17,44,9.50
2017,05,21,17,45,6.00
2017,05,21,17,46,0.00
2017,05,21,17,47,4.90
2017,05,21,17,48,3.50
2017,05,21,17,49,3.90
2017,05,21,17,50,3.80
2017,05,21,17,51,0.80
2017,05,21,17,52,3.40
2017,05,21,17,53,1.00
2017,05,21,17,54,0.00
2017,05,21,17,55,6.70
2017,05,21,17,56,8.40
2017,05,21,17,57,4.60
2017,05,21,17,58,3.20
2017,05,21,17,59,6.40
2017,05,21,18,00,10.60
2017,05,21,18,01,3.60
2017,05,21,18,02,3.10
2017,05,21,18,03,9.00
2017,05,21,18,04,1.90